Weather History for Sexton Summit, OR

Change the Weather History Date:

Monday, November 19, 2012

  Actual Average Record
Temperature  
Mean Temperature 42 °F -  
Max Temperature 46 °F 42 °F 62 °F (2005)
Min Temperature 37 °F 34 °F 28 °F (2003)
Degree Days  
Heating Degree Days 24    
Moisture  
Dew Point 43 °F    
Average Humidity 98    
Maximum Humidity 100    
Minimum Humidity 87    
Precipitation  
Precipitation 2.19 in - - ()
Sea Level Pressure  
Sea Level Pressure 29.79 in    
Wind  
Wind Speed 18 mph (South)    
Max Wind Speed 26 mph    
Max Gust Speed 46 mph    
Visibility 3 miles    
Events Fog , Rain    
Averages and records for this station are not official NWS values.
T = Trace of Precipitation, MM = Missing Value Source: NWS Daily Summary

Daily Weather History Graph

Daily Weather History Graph

Search for Another Location

Airport:

Trip Planner

Search our weather history database for the weather conditions in past years. The results will help you decide how hot, cold, wet, or windy it might be!

Date:

Astronomy

Nov. 19, 2012 Rise Set
Actual Time 7:10 AM PST 4:47 PM PST
Civil Twilight 6:39 AM PST 5:17 PM PST
Nautical Twilight 6:05 AM PST 5:52 PM PST
Astronomical Twilight 5:31 AM PST 6:25 PM PST
Moon 12:13 PM PST (11/19) 11:24 PM PST (11/19)
Length of Visible Light 10h 37m
Length of Day
9h 36m
Waxing Crescent, 42% of the Moon is Illuminated
Nov 19
Waxing Crescent
Nov 20
First Quarter
Nov 28
Full
Dec 6
Last Quarter
Dec 13
New

Hourly Weather History & Observations

Time (PST) Temp. Windchill Dew Point Humidity Pressure Visibility Wind Dir Wind Speed Gust Speed Precip Events Conditions
12:03 AM 37.4 °F 26.6 °F 37.4 °F 100% 29.84 in 1.0 mi South 21.9 mph 31.1 mph N/A Rain Rain
12:08 AM 37.4 °F 26.9 °F 37.4 °F 100% 29.85 in 2.5 mi South 20.7 mph 31.1 mph 0.01 in Rain Light Rain
12:15 AM 37.4 °F 26.9 °F 37.4 °F 100% 29.84 in 4.0 mi South 20.7 mph 31.1 mph 0.01 in Rain Light Rain
12:29 AM 37.4 °F 26.9 °F 37.4 °F 100% 29.85 in 6.0 mi South 20.7 mph 28.8 mph 0.01 in Rain Light Rain
12:56 AM 37.9 °F 29.2 °F 37.0 °F 97% 29.89 in 10.0 mi South 15.0 mph 25.3 mph 0.01 in Rain Light Rain
1:56 AM 39.0 °F 29.6 °F 37.0 °F 93% 29.87 in 10.0 mi SSE 18.4 mph 24.2 mph 0.00 in Rain Light Rain
2:56 AM 39.9 °F 30.0 °F 37.9 °F 93% 29.87 in 5.0 mi South 21.9 mph 29.9 mph 0.02 in Rain Rain
3:09 AM 39.2 °F 29.6 °F 37.4 °F 93% 29.84 in 2.5 mi SSE 19.6 mph 27.6 mph 0.01 in Rain Rain
3:24 AM 39.2 °F 29.6 °F 37.4 °F 93% 29.83 in 6.0 mi South 19.6 mph 28.8 mph 0.03 in Rain Rain
3:56 AM 39.9 °F 30.5 °F 37.9 °F 93% 29.86 in 5.0 mi South 19.6 mph 28.8 mph 0.05 in Rain Rain
4:54 AM 41.0 °F 31.6 °F 37.4 °F 87% 29.82 in 10.0 mi SSE 20.7 mph 31.1 mph 0.01 in Rain Light Rain
4:56 AM 41.0 °F 31.6 °F 37.9 °F 89% 29.85 in 10.0 mi SSE 20.7 mph 31.1 mph 0.01 in Rain Light Rain
5:56 AM 41.0 °F 32.5 °F 39.0 °F 93% 29.84 in 8.0 mi South 17.3 mph 29.9 mph 0.01 in Rain Light Rain
6:56 AM 41.0 °F 32.2 °F 39.9 °F 96% 29.83 in 10.0 mi SSE 18.4 mph 27.6 mph 0.02 in   Overcast
7:56 AM 41.0 °F 32.8 °F 39.0 °F 93% 29.83 in 10.0 mi SSE 16.1 mph 26.5 mph 0.00 in Rain Light Rain
8:37 AM 42.8 °F 33.5 °F 39.2 °F 87% 29.81 in 6.0 mi South 23.0 mph 40.3 mph 0.03 in Rain Light Rain
8:46 AM 42.8 °F 34.3 °F 41.0 °F 93% 29.81 in 7.0 mi South 19.6 mph 36.8 mph 0.03 in Rain Light Rain
8:56 AM 43.0 °F 35.1 °F 41.0 °F 93% 29.82 in 10.0 mi South 17.3 mph 36.8 mph 0.04 in Rain Light Rain
9:56 AM 43.0 °F 34.5 °F 41.0 °F 93% 29.81 in 10.0 mi South 19.6 mph 32.2 mph 0.03 in Rain Light Rain
10:56 AM 43.0 °F 34.8 °F 41.0 °F 93% 29.82 in 10.0 mi South 18.4 mph 31.1 mph 0.00 in Rain Light Rain
11:40 AM 44.6 °F 35.3 °F 42.8 °F 93% 29.79 in 7.0 mi South 26.5 mph 46.0 mph 0.01 in Rain Light Rain
11:56 AM 45.0 °F 36.9 °F 44.1 °F 97% 29.79 in 10.0 mi South 20.7 mph 36.8 mph 0.01 in Rain Light Rain
12:04 PM 44.6 °F 36.1 °F 44.6 °F 100% 29.78 in 1.8 mi SSW 21.9 mph 35.7 mph 0.00 in Rain Light Rain
12:06 PM 44.6 °F 36.1 °F 44.6 °F 100% 29.78 in 0.8 mi SSW 21.9 mph 35.7 mph 0.00 in Rain Light Rain
12:13 PM 44.6 °F 37.2 °F 44.6 °F 100% 29.78 in 0.2 mi South 17.3 mph 35.7 mph 0.00 in Fog , Rain Light Rain
12:21 PM 44.6 °F 37.4 °F 44.6 °F 100% 29.77 in 0.2 mi South 16.1 mph 33.4 mph 0.00 in Fog Fog
12:35 PM 44.6 °F 37.2 °F 44.6 °F 100% 29.78 in 0.2 mi South 17.3 mph 32.2 mph 0.01 in Fog , Rain Light Rain
12:56 PM 45.0 °F 37.6 °F 45.0 °F 100% 29.78 in 0.2 mi South 17.3 mph 33.4 mph 0.01 in Fog , Rain Light Rain
1:11 PM 44.6 °F 35.7 °F 44.6 °F 100% 29.76 in 0.5 mi South 24.2 mph 36.8 mph 0.01 in Fog , Rain Light Rain
1:34 PM 44.6 °F 35.7 °F 44.6 °F 100% 29.75 in 0.2 mi South 24.2 mph 33.4 mph 0.01 in Fog , Rain Light Rain
1:56 PM 46.0 °F 37.8 °F 46.0 °F 100% 29.74 in 0.2 mi South 23.0 mph 34.5 mph 0.01 in Fog , Rain Light Rain
2:28 PM 46.4 °F 40.4 °F 46.4 °F 100% 29.75 in 0.2 mi South 13.8 mph 27.6 mph 0.00 in Fog , Rain Light Rain
2:56 PM 45.0 °F 38.9 °F 45.0 °F 100% 29.75 in 0.2 mi SSW 12.7 mph 27.6 mph 0.01 in Fog , Rain Light Rain
3:56 PM 45.0 °F 37.6 °F 45.0 °F 100% 29.74 in 0.2 mi South 17.3 mph 26.5 mph 0.02 in Fog , Rain Light Rain
4:18 PM 44.6 °F 38.1 °F 44.6 °F 100% 29.75 in 0.2 mi South 13.8 mph 25.3 mph 0.00 in Fog , Rain Light Rain
4:24 PM 44.6 °F 38.4 °F 44.6 °F 100% 29.75 in 0.5 mi South 12.7 mph 23.0 mph 0.00 in Fog Fog
4:36 PM 44.6 °F 38.1 °F 44.6 °F 100% 29.74 in 0.5 mi South 13.8 mph 27.6 mph 0.00 in Fog Fog
4:43 PM 44.6 °F 37.4 °F 44.6 °F 100% 29.75 in 1.5 mi South 16.1 mph 26.5 mph 0.00 in   Overcast
4:46 PM 44.6 °F 37.8 °F 44.6 °F 100% 29.75 in 3.0 mi South 15.0 mph 26.5 mph 0.00 in   Overcast
4:56 PM 45.0 °F 38.2 °F 45.0 °F 100% 29.75 in 4.0 mi South 15.0 mph 25.3 mph 0.00 in Rain Light Rain
5:05 PM 44.6 °F 37.8 °F 44.6 °F 100% 29.75 in 2.5 mi South 15.0 mph 26.5 mph 0.01 in Rain Light Rain
5:08 PM 44.6 °F 37.2 °F 44.6 °F 100% 29.75 in 1.2 mi SSW 17.3 mph 27.6 mph 0.01 in Rain Light Rain
5:17 PM 44.6 °F 38.4 °F 44.6 °F 100% 29.75 in 0.5 mi SSW 12.7 mph 27.6 mph 0.02 in Fog , Rain Light Rain
5:20 PM 44.6 °F 37.2 °F 44.6 °F 100% 29.75 in 0.2 mi SSW 17.3 mph 31.1 mph 0.02 in Fog , Rain Light Rain
5:38 PM 44.6 °F 38.1 °F 44.6 °F 100% 29.75 in 0.2 mi SSW 13.8 mph 28.8 mph 0.04 in Fog , Rain Light Rain
5:56 PM 45.0 °F 38.9 °F 45.0 °F 100% 29.75 in 0.2 mi South 12.7 mph 29.9 mph 0.08 in Fog , Rain Rain
6:56 PM 45.0 °F 38.5 °F 45.0 °F 100% 29.75 in 0.2 mi South 13.8 mph 25.3 mph 0.32 in Fog , Rain Heavy Rain
7:56 PM 45.0 °F 38.9 °F 45.0 °F 100% 29.75 in 0.2 mi SSW 12.7 mph 19.6 mph 0.35 in Fog , Rain Heavy Rain
8:54 PM 46.4 °F 42.9 °F 46.4 °F 100% 29.80 in 0.2 mi Variable 6.9 mph 23.0 mph 0.52 in Fog , Rain Heavy Rain
8:56 PM 46.0 °F 41.9 °F 46.0 °F 100% 29.79 in 0.5 mi WSW 8.1 mph 16.1 mph 0.53 in Fog , Rain Heavy Rain
9:21 PM 44.6 °F 40.2 °F 44.6 °F 100% 29.81 in 0.8 mi South 8.1 mph - 0.10 in Rain Rain
9:26 PM 44.6 °F 39.7 °F 44.6 °F 100% 29.81 in 1.0 mi SSW 9.2 mph - 0.12 in Rain Rain
9:38 PM 44.6 °F 39.7 °F 44.6 °F 100% 29.81 in 0.8 mi SSW 9.2 mph - 0.14 in Rain Rain
9:44 PM 44.6 °F 39.7 °F 44.6 °F 100% 29.80 in 1.5 mi SW 9.2 mph 18.4 mph 0.15 in Rain Rain
9:48 PM 44.6 °F 38.4 °F 44.6 °F 100% 29.80 in 3.0 mi SSW 12.7 mph 19.6 mph 0.16 in Rain Light Rain
9:56 PM 44.1 °F 38.6 °F 44.1 °F 100% 29.79 in 2.5 mi SSW 10.4 mph 19.6 mph 0.17 in Rain Rain
10:01 PM 44.6 °F 40.2 °F 44.6 °F 100% 29.81 in 1.2 mi SSW 8.1 mph 17.3 mph 0.01 in Rain Rain
10:10 PM 44.6 °F 38.8 °F 44.6 °F 100% 29.80 in 0.5 mi South 11.5 mph 19.6 mph 0.05 in Fog , Rain Heavy Rain
10:19 PM 44.6 °F 39.2 °F 44.6 °F 100% 29.80 in 0.5 mi SSW 10.4 mph 19.6 mph 0.09 in Fog , Rain Rain
10:25 PM 44.6 °F 38.4 °F 44.6 °F 100% 29.80 in 0.8 mi South 12.7 mph 18.4 mph 0.10 in Rain Rain
10:56 PM 43.0 °F 37.2 °F 43.0 °F 100% 29.81 in 0.2 mi South 10.4 mph 18.4 mph 0.23 in Fog , Rain Rain
11:12 PM 42.8 °F 38.0 °F 42.8 °F 100% 29.82 in 0.8 mi SSW 8.1 mph - 0.06 in Rain Rain
11:39 PM 42.8 °F 38.0 °F 42.8 °F 100% 29.79 in 1.0 mi SSW 8.1 mph - 0.18 in Rain Heavy Rain
11:52 PM 42.8 °F 36.6 °F 42.8 °F 100% 29.78 in 0.5 mi South 11.5 mph - 0.24 in Fog , Rain Heavy Rain
11:56 PM 43.0 °F 35.7 °F 43.0 °F 100% 29.77 in 0.5 mi South 15.0 mph 20.7 mph 0.26 in Fog , Rain Heavy Rain